This demonstration page uses our WeatherBlox Daily Observations layout. Learn more.

Left ArrowRight Arrow

Hourly Observations for June 9, 2021

Temp ( °F °C ) Dew Point ( °F °C ) Humidity (%) Winds ( mph kmh ) Pressure ( in mb ) Visibility ( mi km ) Precip ( " mm )
12:15 am 00:15 Clear 72 22.4 63 17.4 73 73 SSE 9 15 29.85 1011 10 16 N/A
12:35 am 00:35 Clear 72 22.4 63 17.4 73 73 SE 9 15 29.85 1011 10 16 N/A
12:55 am 00:55 Clear 72 22.1 63 17.3 74 74 SE 9 15 29.85 1011 10 16 N/A
1:15 am 01:15 Clear 72 22.1 63 17.3 74 74 SE 9 15 29.86 1011 10 16 N/A
1:35 am 01:35 Clear 71 21.6 63 17.3 77 77 SE 7 11 29.87 1011 10 16 N/A
1:55 am 01:55 Clear 70 21.2 63 17.3 79 79 SE 8 13 29.87 1012 10 16 N/A
2:15 am 02:15 Clear 70 20.9 63 17.3 80 80 SE 7 11 29.87 1012 10 16 N/A
2:35 am 02:35 Clear 69 20.4 63 17.3 82 82 SE 8 13 29.88 1012 10 16 N/A
2:55 am 02:55 Clear 69 20.5 63 17.3 82 82 SE 8 13 29.89 1012 10 16 N/A
3:15 am 03:15 Clear 69 20.8 64 17.5 82 82 SE 8 13 29.88 1012 10 16 N/A
3:35 am 03:35 Clear 69 20.6 64 17.5 83 83 ESE 9 15 29.88 1012 10 16 N/A
3:55 am 03:55 Clear 69 20.5 64 17.5 83 83 ESE 8 13 29.90 1012 10 16 N/A
4:15 am 04:15 Clear 69 20.4 64 17.6 84 84 SE 6 9 29.90 1012 10 16 N/A
4:35 am 04:35 Clear 68 19.9 64 17.5 86 86 E 5 7 29.91 1013 10 16 N/A
4:55 am 04:55 Partly Cloudy 65 18.6 63 17 90 90 NE 3 6 29.95 1014 10 16 N/A
5:15 am 05:15 Partly Cloudy 64 18 63 17 94 94 ENE 3 6 29.95 1014 7 11 N/A
5:35 am 05:35 Partly Cloudy 64 18 63 17 94 94 SE 3 6 29.94 1014 10 16 N/A
5:55 am 05:55 Mostly Cloudy 67 19.7 64 18 90 90 ESE 3 6 29.93 1014 10 16 N/A
6:15 am 06:15 Mostly Cloudy 68 19.8 64 17.8 88 88 E 6 9 29.93 1014 10 16 N/A
6:35 am 06:35 Cloudy 68 20 64 17.8 87 87 SE 6 9 29.93 1014 10 16 N/A
6:55 am 06:55 Mostly Cloudy 68 20.1 64 17.8 87 87 ESE 10 17 29.91 1013 10 16 N/A
7:15 am 07:15 Partly Cloudy 69 20.3 64 18 87 87 E 8 13 29.91 1013 10 16 N/A
7:35 am 07:35 Sunny 69 20.6 65 18.2 86 86 ESE 9 15 29.91 1013 10 16 N/A
7:55 am 07:55 Sunny 71 21.5 65 18.6 84 84 E 6 9 29.93 1014 10 16 N/A
8:15 am 08:15 Sunny 72 22 66 18.9 83 83 ESE 9 15 29.93 1014 10 16 N/A
8:35 am 08:35 Sunny 73 22.8 66 19.1 80 80 ESE 8 13 29.93 1013 10 16 N/A
8:55 am 08:55 Sunny 74 23.6 67 19.5 78 78 SE 10 17 29.92 1013 10 16 N/A
9:15 am 09:15 Sunny 76 24.5 68 19.8 75 75 SE 7 11 29.91 1013 10 16 N/A
9:35 am 09:35 Sunny 78 25.7 68 20 71 71 SE 12 19 29.90 1013 10 16 N/A
9:55 am 09:55 Sunny 80 26.4 67 19.6 66 66 SE 14 22 29.90 1012 10 16 N/A
10:15 am 10:15 Sunny 80 26.7 67 19.2 64 64 SE 14 22 29.90 1012 10 16 N/A
10:35 am 10:35 Sunny 81 27.2 66 19.1 61 61 SSE 16 26 29.89 1012 10 16 N/A
10:55 am 10:55 Sunny 82 27.6 67 19.2 60 60 SE 14 22 29.89 1012 10 16 N/A
11:15 am 11:15 Sunny 83 28.1 66 19 58 58 SSE 10 17 29.89 1012 10 16 N/A
11:35 am 11:35 Partly Cloudy 83 28.3 66 19.1 57 57 SSE 10 17 29.89 1012 10 16 N/A
11:55 am 11:55 Partly Cloudy 84 28.8 67 19.2 56 56 SSE 14 22 29.89 1012 10 16 N/A
12:15 pm 12:15 Mostly Cloudy 85 29.3 66 18.9 54 54 SE 10 17 29.88 1012 10 16 N/A
12:35 pm 12:35 Mostly Cloudy 85 29.7 66 19 53 53 SSE 8 13 29.88 1012 10 16 N/A
12:55 pm 12:55 Mostly Cloudy 86 29.9 65 18.6 51 51 SSE 12 19 29.88 1012 10 16 N/A
1:15 pm 13:15 Partly Cloudy 86 30.1 66 18.7 50 50 S 10 17 29.87 1011 10 16 N/A
1:35 pm 13:35 Sunny 87 30.3 65 18.2 48 48 SSE 14 22 29.87 1011 10 16 N/A
1:55 pm 13:55 Sunny 87 30.6 64 17.9 47 47 SSE 10 17 29.86 1011 10 16 N/A
2:15 pm 14:15 Partly Cloudy 88 30.9 64 17.9 46 46 SE 7 11 29.86 1011 10 16 N/A
2:35 pm 14:35 Mostly Cloudy 87 30.4 65 18.3 48 48 SE 9 15 29.87 1011 10 16 N/A
2:55 pm 14:55 Mostly Cloudy 87 30.7 65 18.1 47 47 SE 9 15 29.85 1011 10 16 N/A
3:15 pm 15:15 Mostly Cloudy 88 31.2 65 18.5 47 47 S 6 9 29.85 1011 10 16 N/A
3:35 pm 15:35 Mostly Cloudy 89 31.9 65 18.5 45 45 S 9 15 29.84 1011 10 16 N/A
3:55 pm 15:55 Partly Cloudy 90 32.1 66 18.7 45 45 S 6 9 29.83 1010 10 16 N/A
4:15 pm 16:15 Partly Cloudy 90 32.2 66 18.9 45 45 S 10 17 29.83 1010 10 16 N/A
4:35 pm 16:35 Partly Cloudy 89 31.8 66 18.9 46 46 SSE 7 11 29.82 1010 10 16 N/A
4:55 pm 16:55 Partly Cloudy 90 32.1 65 18.6 45 45 SSE 5 7 29.81 1010 10 16 N/A
5:15 pm 17:15 Mostly Cloudy 88 31.3 66 19.1 48 48 S 8 13 29.82 1010 10 16 N/A
5:35 pm 17:35 Mostly Cloudy 88 31.1 67 19.3 49 49 S 6 9 29.82 1010 10 16 N/A
5:55 pm 17:55 Mostly Cloudy 89 31.7 67 19.4 48 48 SSE 10 17 29.81 1009 10 16 N/A
6:15 pm 18:15 Cloudy 87 30.7 66 19.1 50 50 S 5 7 29.81 1010 10 16 N/A
6:35 pm 18:35 Mostly Cloudy 88 31.2 66 19.1 49 49 SSE 10 17 29.80 1009 10 16 N/A
6:55 pm 18:55 Partly Cloudy 88 31.2 66 19.1 49 49 SE 8 13 29.80 1009 10 16 N/A
7:15 pm 19:15 Sunny 88 30.9 66 19 49 49 S 8 13 29.80 1009 10 16 N/A
7:35 pm 19:35 Sunny 87 30.5 66 19.1 51 51 S 8 13 29.81 1009 10 16 N/A
7:55 pm 19:55 Sunny 86 30.1 66 19.1 52 52 SE 9 15 29.81 1009 10 16 N/A
8:15 pm 20:15 Sunny with Light Rain 85 29.6 67 19.3 54 54 SSE 7 11 29.81 1010 10 16 N/A
8:35 pm 20:35 Sunny with Light Rain 83 28.5 67 19.7 59 59 SE 3 6 29.83 1010 10 16 N/A
8:55 pm 20:55 Sunny 82 28 66 19.1 58 58 SE 7 11 29.84 1010 10 16 N/A
9:15 pm 21:15 Clear 81 27.3 66 19 61 61 SE 5 7 29.84 1011 10 16 N/A
9:35 pm 21:35 Clear 80 26.5 66 19.1 64 64 SE 7 11 29.85 1011 10 16 N/A
9:55 pm 21:55 Clear 79 26.1 67 19.2 66 66 SE 7 11 29.86 1011 10 16 N/A
10:15 pm 22:15 Clear 79 26.3 66 19 64 64 SSE 8 13 29.86 1011 10 16 N/A
10:35 pm 22:35 Clear 78 25.6 66 19 67 67 SE 7 11 29.87 1012 10 16 N/A
10:55 pm 22:55 Clear 79 26.2 66 18.8 64 64 SE 8 13 29.88 1012 10 16 N/A
11:15 pm 23:15 Clear 78 25.5 66 18.8 67 67 SE 6 9 29.89 1012 10 16 N/A
11:35 pm 23:35 Clear 77 25.1 66 18.8 68 68 SE 6 9 29.89 1012 10 16 N/A
11:55 pm 23:55 Clear 76 24.6 66 18.8 70 70 SE 7 11 29.89 1012 10 16 N/A

Powered by AerisWeather